K3HM Weather Reports


time (UTC)temp
C
wind
direction
speed
KPH
gust
KPH
rain 1hr
cm
rain 24hr
cm
rain mn
cm
humidity
%
barometer
mb
20260509162100 11 276 4.8 6.4 0.00 0.10 0.10 92 1011.4
20260509161556 10 195 6.4 6.4 0.00 0.10 0.10 92 1011.6
20260509161056 10 305 1.6 1.6 0.00 0.10 0.10 92 1011.5
20260509160553 10 247 6.4 9.7 0.00 0.10 0.10 91 1011.4
20260509160048 10 263 4.8 4.8 0.00 0.10 0.10 92 1011.5
20260509155544 10 201 8.0 9.7 0.00 0.10 0.10 93 1011.7
20260509155041 10 228 6.4 9.7 0.00 0.10 0.10 94 1011.6
20260509154537 10 220 6.4 11.3 0.00 0.10 0.10 94 1011.4
20260509154035 10 267 4.8 6.4 0.00 0.10 0.10 93 1011.6
20260509153531 10 240 8.0 9.7 0.00 0.10 0.10 92 1011.4
20260509153028 10 249 6.4 6.4 0.00 0.10 0.10 92 1011.4
20260509152524 10 237 4.8 6.4 0.00 0.10 0.10 93 1011.6
20260509152021 10 210 6.4 9.7 0.00 0.10 0.10 91 1011.3
20260509151518 10 270 6.4 6.4 0.00 0.10 0.10 91 1011.2
20260509151016 10 228 4.8 4.8 0.00 0.10 0.10 91 1011.3
20260509150513 10 216 8.0 9.7 0.00 0.10 0.10 92 1011.4
20260509150011 10 244 4.8 4.8 0.00 0.10 0.10 91 1011.3
20260509145506 10 198 4.8 4.8 0.00 0.10 0.10 92 1011.4
20260509145001 10 305 3.2 3.2 0.00 0.10 0.10 92 1011.3
20260509144459 10 257 6.4 6.4 0.00 0.10 0.10 92 1011.5
20260509143956 10 286 6.4 6.4 0.00 0.10 0.10 92 1011.3
20260509143453 10 167 4.8 4.8 0.00 0.10 0.10 92 1011.4
20260509142950 10 212 8.0 16.1 0.00 0.10 0.10 92 1011.3
20260509142446 10 240 4.8 6.4 0.00 0.10 0.10 92 1011.4
20260509141941 10 225 4.8 6.4 0.00 0.10 0.10 92 1011.4
20260509141438 10 201 6.4 9.7 0.00 0.10 0.10 94 1011.5
20260509140935 10 270 4.8 4.8 0.00 0.10 0.10 95 1011.5
20260509140431 9 239 8.0 11.3 0.00 0.10 0.10 95 1011.6
20260509135930 9 219 11.3 12.9 0.00 0.10 0.10 95 1011.6
20260509135427 9 241 4.8 9.7 0.00 0.10 0.10 95 1011.6
20260509134924 9 226 4.8 4.8 0.18 0.10 0.10 95 1011.5
20260509134421 9 209 4.8 4.8 0.18 0.10 0.10 95 1011.7
20260509133919 9 193 4.8 6.4 0.00 0.08 0.08 94 1011.8
20260509133415 9 241 3.2 3.2 0.00 0.08 0.08 94 1011.8
20260509132914 9 287 6.4 6.4 0.00 0.08 0.08 93 1011.8
20260509132412 10 230 3.2 4.8 0.00 0.08 0.08 93 1011.8
20260509131908 9 240 4.8 4.8 0.00 0.08 0.08 93 1011.7
20260509131405 9 279 4.8 4.8 0.00 0.08 0.08 93 1011.7
20260509130902 9 222 3.2 3.2 0.00 0.08 0.08 94 1011.6
20260509130357 9 232 4.8 6.4 0.00 0.08 0.08 93 1011.7
20260509125854 9 210 4.8 6.4 0.00 0.08 0.08 94 1011.5
20260509125351 9 243 6.4 11.3 0.00 0.08 0.08 94 1011.8
20260509124847 9 194 4.8 6.4 0.00 0.08 0.08 94 1011.8
20260509124344 9 264 4.8 6.4 0.00 0.08 0.08 95 1011.8
20260509123842 9 250 3.2 4.8 0.00 0.08 0.08 95 1011.8
20260509123339 9 294 3.2 3.2 0.00 0.08 0.08 95 1011.7
20260509122834 8 269 4.8 4.8 0.00 0.08 0.08 94 1012.0
20260509122332 8 253 4.8 4.8 0.00 0.08 0.08 94 1011.9
20260509121829 9 223 3.2 4.8 0.00 0.08 0.08 94 1011.8
20260509121326 9 241 4.8 4.8 0.00 0.08 0.08 94 1012.0
20260509120824 9 278 1.6 3.2 0.00 0.08 0.08 95 1012.0
20260509120321 8 275 4.8 4.8 0.00 0.08 0.08 94 1011.9
20260509115820 8 218 8.0 9.7 0.13 0.08 0.08 94 1011.7
20260509115316 8 197 4.8 4.8 0.13 0.08 0.08 95 1011.9
20260509114814 8 302 6.4 6.4 0.00 0.05 0.05 95 1011.9
20260509114313 8 198 4.8 4.8 0.00 0.05 0.05 95 1011.9
20260509113812 8 242 3.2 3.2 0.00 0.05 0.05 95 1011.8
20260509113308 8 255 3.2 4.8 0.00 0.05 0.05 95 1011.7
20260509112805 8 201 3.2 4.8 0.00 0.05 0.05 95 1011.9
20260509112306 8 297 3.2 4.8 0.00 0.05 0.05 95 1011.7
20260509111759 8 314 3.2 3.2 0.00 0.05 0.05 95 1011.9
20260509111255 8 215 4.8 4.8 0.00 0.05 0.05 95 1011.8
20260509110753 8 229 4.8 4.8 0.00 0.05 0.05 95 1011.9
20260509110249 8 318 3.2 3.2 0.00 0.05 0.05 95 1011.9
20260509105748 8 201 4.8 6.4 0.00 0.05 0.05 95 1011.9
20260509105245 8 223 3.2 4.8 0.18 0.05 0.05 94 1012.0
20260509104741 8 251 3.2 3.2 0.18 0.05 0.05 94 1012.0
20260509104239 8 279 3.2 4.8 0.00 0.03 0.03 93 1011.8
20260509103737 8 22 1.6 1.6 0.00 0.03 0.03 93 1011.9
20260509103234 7 358 3.2 3.2 0.00 0.03 0.03 94 1011.8
20260509102732 8 232 3.2 3.2 0.00 0.03 0.03 93 1012.0
20260509102228 8 287 1.6 3.2 0.00 0.03 0.03 93 1012.0
20260509101725 8 210 1.6 3.2 0.00 0.03 0.03 92 1012.0
20260509101221 8 52 1.6 1.6 0.00 0.03 0.03 92 1012.0
20260509100719 8 113 1.6 1.6 0.00 0.03 0.03 90 1012.2
20260509100216 8 338 3.2 4.8 0.13 0.03 0.03 89 1012.3
20260509095713 8 301 8.0 11.3 0.13 0.03 0.03 88 1012.3
20260509095210 8 261 4.8 6.4 0.00 0.00 0.00 87 1012.3
20260509094707 8 186 8.0 9.7 0.00 0.00 0.00 86 1012.2
20260509094203 7 331 4.8 6.4 0.00 0.00 0.00 91 1011.9
20260509093702 7 7 0.0 0.0 0.00 0.00 0.00 93 1011.9
20260509093159 7 19 0.0 0.0 0.00 0.00 0.00 92 1012.0
20260509092656 7 27 0.0 0.0 0.00 0.00 0.00 92 1011.8
20260509092155 7 13 0.0 0.0 0.00 0.00 0.00 91 1011.7
20260509091653 7 357 0.0 0.0 0.00 0.00 0.00 90 1012.0
20260509091148 8 357 0.0 0.0 0.00 0.00 0.00 88 1011.7
20260509090646 8 329 0.0 1.6 0.00 0.00 0.00 86 1011.5
20260509090143 8 2 0.0 0.0 0.00 0.00 0.00 84 1011.6
20260509085641 8 353 0.0 0.0 0.00 0.00 0.00 83 1011.6
20260509085136 9 2 0.0 0.0 0.00 0.00 0.00 78 1011.5
20260509084634 9 2 0.0 1.6 0.00 0.00 0.00 77 1011.5
20260509084131 9 1 0.0 0.0 0.00 0.00 0.00 74 1011.4
20260509083628 9 28 0.0 0.0 0.00 0.00 0.00 74 1011.3
20260509083125 9 21 0.0 0.0 0.00 0.00 0.00 77 1011.4
20260509082622 9 5 0.0 0.0 0.00 0.00 0.00 77 1011.4
20260509082119 9 16 0.0 0.0 0.00 0.00 0.00 79 1011.3
20260509081616 9 16 0.0 0.0 0.00 0.00 0.00 76 1011.4
20260509081113 9 349 1.6 1.6 0.00 0.00 0.00 77 1011.3
20260509080611 9 8 0.0 0.0 0.00 0.00 0.00 75 1011.1
20260509080109 9 350 1.6 1.6 0.00 0.00 0.00 77 1011.2
20260509075606 9 325 1.6 1.6 0.00 0.00 0.00 76 1011.3
20260509075104 8 6 0.0 0.0 0.00 0.00 0.00 78 1011.1
20260509074601 8 10 1.6 3.2 0.00 0.00 0.00 79 1011.1
20260509074057 8 359 0.0 1.6 0.00 0.00 0.00 79 1011.3
20260509073554 8 281 3.2 3.2 0.00 0.00 0.00 80 1011.4
20260509073050 8 0 1.6 1.6 0.00 0.00 0.00 83 1011.1
20260509072547 8 11 0.0 0.0 0.00 0.00 0.00 79 1011.3
20260509072044 8 24 0.0 1.6 0.00 0.00 0.00 80 1011.3
20260509071541 8 8 0.0 1.6 0.00 0.00 0.00 81 1011.4
20260509071038 8 8 0.0 1.6 0.00 0.00 0.00 81 1011.2
20260509070535 8 9 0.0 0.0 0.00 0.00 0.00 81 1011.0
20260509070031 8 18 0.0 0.0 0.00 0.00 0.00 80 1010.9
20260509065527 8 23 1.6 1.6 0.00 0.00 0.00 81 1011.2
20260509065023 8 11 1.6 1.6 0.00 0.00 0.00 81 1011.1
20260509064521 7 11 0.0 0.0 0.00 0.00 0.00 84 1011.4
20260509064019 7 11 0.0 0.0 0.00 0.00 0.00 84 1011.6
20260509063514 7 11 0.0 0.0 0.00 0.00 0.00 84 1011.6
20260509063011 7 11 0.0 0.0 0.00 0.00 0.00 84 1011.9
20260509062509 7 11 0.0 0.0 0.00 0.00 0.00 85 1011.8
20260509062006 7 11 0.0 0.0 0.00 0.00 0.00 86 1011.9
20260509061503 7 11 0.0 0.0 0.00 0.00 0.00 86 1012.0
20260509061001 7 11 0.0 0.0 0.00 0.00 0.00 86 1012.2
20260509060458 7 11 0.0 0.0 0.00 0.00 0.00 87 1012.3
20260509055953 7 11 0.0 0.0 0.00 0.00 0.00 87 1012.3
20260509055448 7 11 0.0 0.0 0.00 0.00 0.00 88 1012.2
20260509054945 7 11 0.0 0.0 0.00 0.00 0.00 89 1012.4
20260509054442 8 11 0.0 0.0 0.00 0.00 0.00 89 1012.5
20260509053940 8 10 0.0 0.0 0.00 0.00 0.00 88 1012.6
20260509053438 8 25 0.0 0.0 0.00 0.00 0.00 87 1012.7
20260509052935 8 27 0.0 0.0 0.00 0.00 0.00 87 1012.8
20260509052432 8 27 0.0 0.0 0.00 0.00 0.00 87 1012.8
20260509051930 8 27 0.0 0.0 0.00 0.00 0.00 88 1012.7
20260509051428 8 358 0.0 0.0 0.00 0.00 0.00 86 1012.6
20260509050924 8 356 0.0 0.0 0.00 0.00 0.00 85 1012.8
20260509050421 8 358 0.0 0.0 0.00 0.00 0.00 87 1012.8
20260509045918 8 358 0.0 0.0 0.00 0.00 0.00 87 1012.6
20260509045415 8 358 0.0 0.0 0.00 0.00 0.00 87 1012.8
20260509044912 8 358 0.0 1.6 0.00 0.00 0.00 87 1012.6
20260509044410 8 358 0.0 0.0 0.00 0.00 0.00 87 1012.8
20260509043906 8 358 0.0 0.0 0.00 0.00 0.00 87 1012.6
20260509043402 8 358 0.0 0.0 0.00 0.00 0.00 86 1012.9
20260509042858 8 358 1.6 1.6 0.00 0.00 0.00 86 1013.0
20260509042355 8 358 1.6 1.6 0.00 0.00 0.00 86 1012.8
20260509041851 8 358 0.0 0.0 0.00 0.00 0.00 86 1012.8
20260509041348 8 358 0.0 0.0 0.00 0.00 0.00 88 1012.8
20260509040847 8 358 0.0 0.0 0.00 0.00 0.00 88 1012.9
20260509040344 8 358 0.0 0.0 0.00 0.00 0.00 89 1013.1
20260509035841 8 358 0.0 0.0 0.00 0.00 0.00 89 1012.9
20260509035338 8 358 0.0 0.0 0.00 0.00 0.00 87 1012.8
20260509034834 8 358 0.0 0.0 0.00 0.00 0.00 87 1012.9
20260509034332 8 358 0.0 0.0 0.00 0.00 0.00 87 1012.9
20260509033828 8 358 0.0 0.0 0.00 0.00 0.00 86 1012.9
20260509033326 8 358 0.0 0.0 0.00 0.00 0.00 86 1012.8
20260509032822 8 358 0.0 0.0 0.00 0.00 0.00 87 1012.9
20260509032320 8 358 0.0 0.0 0.00 0.00 0.00 87 1012.9
20260509031818 8 358 0.0 0.0 0.00 0.00 0.00 85 1012.8
20260509031315 8 358 0.0 0.0 0.00 0.00 0.00 85 1013.1
20260509030812 8 358 0.0 0.0 0.00 0.00 0.00 83 1012.9
20260509030310 8 358 0.0 0.0 0.00 0.00 0.00 82 1013.0
20260509025806 8 358 0.0 0.0 0.00 0.00 0.00 82 1013.0
20260509025306 8 358 0.0 0.0 0.00 0.00 0.00 82 1012.9
20260509024758 8 358 0.0 0.0 0.00 0.00 0.00 80 1013.1
20260509024254 8 358 0.0 0.0 0.00 0.00 0.00 80 1013.0
20260509023751 8 358 0.0 0.0 0.00 0.00 0.00 78 1013.2
20260509023248 8 358 0.0 0.0 0.00 0.00 0.00 78 1013.1
20260509022744 8 358 0.0 0.0 0.00 0.00 0.00 77 1013.1
20260509022242 8 358 0.0 0.0 0.00 0.00 0.00 76 1013.0
20260509021739 8 358 0.0 0.0 0.00 0.00 0.00 76 1012.9
20260509021236 9 357 0.0 0.0 0.00 0.00 0.00 75 1013.0
20260509020734 10 357 0.0 0.0 0.00 0.00 0.00 72 1013.1
20260509020231 10 358 1.6 1.6 0.00 0.00 0.00 72 1013.1
20260509015729 10 357 1.6 1.6 0.00 0.00 0.00 74 1012.9
20260509015227 8 1 1.6 1.6 0.00 0.00 0.00 80 1013.0
20260509014723 8 10 0.0 0.0 0.00 0.00 0.00 83 1013.1
20260509014220 8 10 0.0 0.0 0.00 0.00 0.00 82 1013.0
20260509013717 8 9 0.0 0.0 0.00 0.00 0.00 82 1013.0
20260509013212 8 10 0.0 0.0 0.00 0.00 0.00 83 1013.0
20260509012709 8 10 0.0 0.0 0.00 0.00 0.00 84 1012.9
20260509012206 8 10 0.0 0.0 0.00 0.00 0.00 84 1013.0
20260509011704 8 10 0.0 0.0 0.00 0.00 0.00 84 1013.0
20260509011201 8 18 0.0 0.0 0.00 0.00 0.00 85 1012.8
20260509010659 8 17 0.0 0.0 0.00 0.00 0.00 81 1012.9
20260509010155 8 18 0.0 1.6 0.00 0.00 0.00 82 1012.8
20260509005653 8 27 0.0 0.0 0.00 0.00 0.00 80 1013.0
20260509005149 8 27 1.6 1.6 0.00 0.00 0.00 78 1012.7
20260509004644 8 11 0.0 0.0 0.00 0.00 0.00 79 1013.0
20260509004142 8 13 1.6 1.6 0.00 0.00 0.00 79 1012.8
20260509003640 8 359 1.6 1.6 0.00 0.00 0.00 80 1012.7
20260509003137 8 359 0.0 0.0 0.00 0.00 0.00 80 1012.6
20260509002635 8 359 0.0 0.0 0.00 0.00 0.00 79 1012.8
20260509002132 9 358 0.0 0.0 0.00 0.00 0.00 78 1012.5
20260509001630 9 358 0.0 0.0 0.00 0.00 0.00 78 1012.5
20260509001125 10 358 1.6 1.6 0.00 0.00 0.00 79 1012.7
20260509000624 10 358 0.0 0.0 0.00 0.00 0.00 78 1012.7
20260509000120 10 358 0.0 0.0 0.00 0.00 0.00 77 1012.7
20260508235617 10 0 0.0 0.0 0.00 0.00 0.00 76 1012.7
20260508235113 10 359 0.0 0.0 0.00 0.00 0.00 75 1012.6
20260508234611 10 359 0.0 0.0 0.00 0.00 0.00 75 1012.6
20260508234107 11 358 0.0 1.6 0.00 0.00 0.00 75 1012.6
20260508233607 11 358 0.0 0.0 0.00 0.00 0.00 72 1012.5
20260508233104 11 358 0.0 0.0 0.00 0.00 0.00 70 1012.6
20260508232601 11 358 0.0 0.0 0.00 0.00 0.00 71 1012.4
20260508232057 11 358 0.0 0.0 0.00 0.00 0.00 67 1012.4
20260508231555 11 358 0.0 0.0 0.00 0.00 0.00 69 1012.7
20260508231052 11 344 0.0 1.6 0.00 0.00 0.00 67 1012.7
20260508230549 11 353 0.0 0.0 0.00 0.00 0.00 66 1012.5
20260508230045 11 338 1.6 1.6 0.00 0.00 0.00 67 1012.7
20260508225543 11 338 0.0 0.0 0.00 0.00 0.00 65 1012.6
20260508225039 11 286 1.6 1.6 0.00 0.00 0.00 64 1012.3
20260508224537 11 198 3.2 3.2 0.00 0.00 0.00 64 1012.6
20260508224034 11 315 1.6 1.6 0.00 0.00 0.00 63 1012.4
20260508223532 12 234 3.2 4.8 0.00 0.00 0.00 63 1012.6
20260508223029 12 258 3.2 4.8 0.00 0.00 0.00 61 1012.4
20260508222527 12 264 3.2 4.8 0.00 0.00 0.00 62 1012.4
20260508222023 12 273 3.2 3.2 0.00 0.00 0.00 62 1012.5
20260508221519 12 256 3.2 3.2 0.00 0.00 0.00 64 1012.6
20260508221015 11 238 3.2 3.2 0.00 0.00 0.00 65 1012.6
20260508220512 11 213 3.2 4.8 0.00 0.00 0.00 65 1012.8
20260508220008 11 347 0.0 1.6 0.00 0.00 0.00 65 1012.8
20260508215505 11 193 1.6 3.2 0.00 0.00 0.00 67 1012.9
20260508215001 11 205 3.2 4.8 0.00 0.00 0.00 66 1013.0
20260508214500 11 18 0.0 0.0 0.00 0.00 0.00 67 1013.0
20260508213955 11 283 1.6 1.6 0.00 0.00 0.00 67 1013.0
20260508213453 11 25 1.6 3.2 0.00 0.00 0.00 67 1013.1
20260508212948 11 359 1.6 3.2 0.00 0.00 0.00 68 1013.0
20260508212445 11 311 3.2 3.2 0.00 0.00 0.00 66 1013.1
20260508211941 11 347 3.2 4.8 0.00 0.00 0.00 67 1013.1
20260508211437 11 318 3.2 3.2 0.00 0.00 0.00 68 1013.2
20260508210934 11 9 1.6 1.6 0.00 0.00 0.00 69 1013.3
20260508210431 11 351 1.6 3.2 0.00 0.00 0.00 67 1013.2
20260508205927 11 298 8.0 9.7 0.00 0.00 0.00 66 1013.2
20260508205425 11 326 6.4 11.3 0.00 0.00 0.00 65 1013.4
20260508204920 11 273 11.3 16.1 0.00 0.00 0.00 67 1013.2
20260508204418 11 3 0.0 0.0 0.00 0.00 0.00 68 1013.3
20260508203913 11 308 1.6 1.6 0.00 0.00 0.00 68 1013.4
20260508203410 11 236 3.2 3.2 0.00 0.00 0.00 67 1013.5
20260508202906 11 253 4.8 6.4 0.00 0.00 0.00 66 1013.5
20260508202403 11 234 6.4 9.7 0.00 0.00 0.00 64 1013.7
20260508201900 11 234 4.8 9.7 0.00 0.00 0.00 64 1013.5
20260508201357 11 342 4.8 4.8 0.00 0.00 0.00 65 1013.4
20260508200853 11 247 3.2 3.2 0.00 0.00 0.00 65 1013.7
20260508200350 11 15 0.0 1.6 0.00 0.00 0.00 64 1013.7
20260508195846 11 229 9.7 14.5 0.00 0.00 0.00 62 1013.8
20260508195343 11 274 4.8 4.8 0.00 0.00 0.00 62 1013.7
20260508194839 12 234 8.0 12.9 0.00 0.00 0.00 62 1013.5
20260508194336 12 181 9.7 9.7 0.00 0.00 0.00 62 1013.8
20260508193833 12 230 6.4 9.7 0.00 0.00 0.00 60 1013.8
20260508193330 12 224 9.7 11.3 0.00 0.00 0.00 59 1013.8
20260508192827 12 243 4.8 4.8 0.00 0.00 0.00 60 1013.7
20260508192323 12 291 11.3 14.5 0.00 0.00 0.00 57 1013.5
20260508191820 12 336 8.0 12.9 0.00 0.00 0.00 58 1013.7
20260508191318 12 282 4.8 4.8 0.00 0.00 0.00 58 1013.5
20260508190815 12 243 12.9 14.5 0.00 0.00 0.00 56 1013.5
20260508190311 12 219 6.4 11.3 0.00 0.00 0.00 57 1013.5
20260508185807 12 250 4.8 4.8 0.00 0.00 0.00 57 1013.5
20260508185306 12 280 3.2 4.8 0.00 0.00 0.00 56 1013.8
20260508184802 12 269 9.7 12.9 0.00 0.00 0.00 55 1013.8
20260508184259 13 184 6.4 9.7 0.00 0.00 0.00 54 1013.7
20260508183756 13 353 4.8 6.4 0.00 0.00 0.00 54 1013.5
20260508183252 13 212 16.1 17.7 0.00 0.00 0.00 53 1013.5
20260508182749 13 215 4.8 6.4 0.00 0.00 0.00 55 1013.5
20260508182245 12 241 4.8 4.8 0.00 0.00 0.00 55 1013.8
20260508181741 13 243 9.7 11.3 0.00 0.00 0.00 55 1013.7
20260508181238 13 284 4.8 4.8 0.00 0.00 0.00 52 1013.5
20260508180735 13 288 6.4 9.7 0.00 0.00 0.00 52 1013.5
20260508180232 13 256 4.8 6.4 0.00 0.00 0.00 51 1013.7
20260508175728 13 180 3.2 3.2 0.00 0.00 0.00 51 1013.8
20260508175225 12 236 8.0 12.9 0.00 0.00 0.00 51 1013.9
20260508174723 13 220 8.0 11.3 0.00 0.00 0.00 52 1013.9
20260508174220 13 17 4.8 4.8 0.00 0.00 0.00 50 1013.9
20260508173716 13 190 6.4 9.7 0.00 0.00 0.00 49 1013.9
20260508173212 13 190 3.2 4.8 0.00 0.00 0.00 49 1013.7
20260508172709 13 259 11.3 12.9 0.00 0.00 0.00 49 1013.7
20260508172206 13 233 4.8 6.4 0.00 0.00 0.00 49 1014.0
20260508171703 13 232 14.5 16.1 0.00 0.00 0.00 47 1014.0
20260508171159 13 262 3.2 4.8 0.00 0.00 0.00 50 1014.1
20260508170656 13 276 12.9 14.5 0.00 0.00 0.00 47 1014.0
20260508170154 13 291 8.0 11.3 0.00 0.00 0.00 45 1014.0
20260508165651 13 194 12.9 16.1 0.00 0.00 0.00 47 1014.3
20260508165148 14 278 4.8 6.4 0.00 0.00 0.00 46 1014.1
20260508164644 14 251 4.8 6.4 0.00 0.00 0.00 46 1014.1
20260508164141 13 260 11.3 16.1 0.00 0.00 0.00 49 1014.2
20260508163639 14 232 17.7 24.1 0.00 0.00 0.00 46 1014.3
20260508163136 13 259 11.3 14.5 0.00 0.00 0.00 49 1014.3
20260508162631 13 154 11.3 16.1 0.00 0.00 0.00 48 1014.3